Погода в Монтерее

США     36°36′22″N   121°48′23″W
темп.,
°C
ветер,
м/с
пор.,
м/с
влажн.,
%
обл.,
%
осадки,
мм/ч
давл.,
гПа
погр.,
м
19 апреля, пн
пн1923:00+13ю21345 0.0 102012
02:00+12ююз11385 0.0 102011
05:00+10ююз114546 0.0 102012
08:00+11з226939 0.0 1021130
11:00+17зсз33503 0.0 1020352
14:00+15зсз446011 0.0 1020369
17:00+13з4565100 0.0 1019331
20:00+7зюз349221 0.0 1019118
20 апреля, вт
вт2023:00+7зюз338749 0.0 1019106
02:00+8зюз349460 0.0 1018267
05:00+8зюз359456 0.0 1017311
08:00+9з3487100 0.0 1017368
11:00+13з3471100 0.0 1015471
14:00+13з567242 0.0 1014558
17:00+9з488599 0.1 1014657
20:00+8з3794100 0.1 1013729
21 апреля, ср
ср2123:00+8юз239591 0.1 1012243
02:00+8зюз239789 0.0 1012269
05:00+8зюз239374 0.1 1011287
08:00+10зюз118531 0.0 1012268
11:00+16сз32591 0.0 1012559
14:00+18зсз43541 0.0 1011583
17:00+14зсз446611 0.0 1011417
20:00+7зюз119111 0.0 101152
22 апреля, чт
чт2223:00+7зюз129250 0.1 1013175
02:00+6ю11844 0.0 101219
05:00+6ю11720 0.0 101211
08:00+11зюз11610 0.0 1013130
11:00+17сз32520 0.0 1014542
14:00+19сз32505 0.0 1013563
17:00+17зсз33570 0.0 1012423
20:00+8з22947 0.0 101428
23 апреля, пт
пт2323:00+6зюз229337 0.0 101568
02:00+6з118697 0.0 101558
05:00+5зюз1189100 0.0 101545
08:00+9з127586 0.0 1015166
11:00+15зсз43541 0.0 1015544
14:00+18зсз43460 0.0 1014592
17:00+15зсз44553 0.0 1014411
20:00+7зюз229215 0.0 101729